Regional Weather Roundup
Issued by NWS

Home | Current Version | Previous Version | Graphics & Text | Print | Product List | Glossary On
Versions: 1 2 3 4 5 6 7 8 9 10 11 12 13 14 15 16 17 18 19 20 21 22 23 24 25 26 27 28 29 30 31 32 33 34 35 36 37 38 39 40 41 42 43 44 45 46 47 48 49 50
000
ASUS43 KMKX 212300
RWRWI

WISCONSIN REGIONAL WEATHER ROUNDUP
NATIONAL WEATHER SERVICE MILWAUKEE/SULLIVAN WI
500 PM CST TUE FEB 21 2017

NOTE: "FAIR" INDICATES FEW OR NO CLOUDS BELOW 12,000 FEET WITH NO
SIGNIFICANT WEATHER AND/OR OBSTRUCTIONS TO VISIBILITY.

WIZ001-002-006>008-014>016-023>028-220000-
NORTHWEST WISCONSIN

CITY           SKY/WX    TMP DP  RH WIND       PRES   REMARKS
SUPERIOR ARPT  CLOUDY    41  35  79 CALM      29.70R
ASHLAND        CLOUDY    51  32  48 S9        29.71S
HAYWARD        CLOUDY    49  34  56 S3        29.72F
SIREN          CLOUDY    52  38  59 S8        29.70F
CUMBERLAND     PTCLDY    46  37  71 S8        29.72F
RICE LAKE      PTCLDY    51  39  63 SE7       29.74F
CHETEK         PTCLDY    53  39  58 SE3       29.74F
LADYSMITH      PTCLDY    53  37  54 S6        29.76F
EAU CLAIRE     NOT AVBL
MENOMONIE      PTCLDY    57  36  46 S13G21    29.74S
NEW RICHMOND   PTCLDY    56  40  54 SW7       29.72S
OSCEOLA        NOT AVBL
$$

WIZ003>005-009-010-017-018-220000-
NORTH CENTRAL WISCONSIN

CITY           SKY/WX    TMP DP  RH WIND       PRES   REMARKS
MANITOWISH WTR PTCLDY    49  29  46 S3        29.75F
ARBOR VITAE    CLOUDY    52  31  44 S7          N/A
WOODRUFF       CLOUDY    52  31  44 S7          N/A
RHINELANDER    CLEAR     51  31  46 S5        29.78F
EAGLE RIVER    PTCLDY    52  26  35 SW7       29.78S
LAND O LAKES   PTCLDY    52  27  38 CALM      29.77F
PHILLIPS       CLOUDY    50  34  55 S9        29.74F
TOMAHAWK       PTCLDY    50  31  47 CALM      29.79F
MEDFORD        PTCLDY    48  39  72 S9        29.78F
MERRILL        NOT AVBL
$$

WIZ029-030-035-036-043>047-220000-
CENTRAL WISCONSIN

CITY           SKY/WX    TMP DP  RH WIND       PRES   REMARKS
WAUSAU         CLEAR     52  34  50 S10       29.80F
MOSINEE        NOT AVBL
MARSHFIELD     CLEAR     54  37  52 S9        29.79F
STEVENS POINT  CLEAR     56  30  37 S8        29.83F
WAUPACA        CLEAR     60  34  37 S6        29.84S
WAUTOMA        CLEAR     59  36  42 S7        29.85S
WISC RAPIDS    CLEAR     56  34  43 S8        29.83F
CAMP DOUGLAS   NOT AVBL
$$

WIZ011>013-019>022-031-037>040-048>050-220000-
NORTHEAST WISCONSIN

CITY           SKY/WX    TMP DP  RH WIND       PRES   REMARKS
ANTIGO         CLEAR     46  34  62 S6        29.83S
SHAWANO        CLEAR     58  35  43 CALM      29.84F
OCONTO         CLEAR     55  37  49 SW3       29.84S
STURGEON BAY   CLEAR     55  34  45 SW6       29.86R
GREEN BAY      CLEAR     56  44  64 S6        29.85S
MANITOWOC      NOT AVBL
APPLETON       PTCLDY    55  39  54 SE9       29.84F
CLINTONVILLE   CLEAR     55  34  44 SW5       29.84S
OSHKOSH        CLEAR     56  42  59 S7        29.86S
$$

WIZ032>034-041-042-053>061-220000-
SOUTHWEST WISCONSIN

CITY           SKY/WX    TMP DP  RH WIND       PRES   REMARKS
LA CROSSE      MOCLDY    59  35  40 S12       29.80F
SPARTA         CLOUDY    58  35  41 S12       29.82F
VIROQUA        MOCLDY    55  37  50 S7        29.83F
BOSCOBEL       CLOUDY    60  38  43 S5        29.86F
PRAIRIE DU CHI CLOUDY    58  34  40 SE5       29.85F
PLATTEVILLE    CLOUDY    57  41  55 S6        29.89F
$$

WIZ056-057-062-063-064-067-068-220000-
SOUTH CENTRAL WISCONSIN

CITY           SKY/WX    TMP DP  RH WIND       PRES   REMARKS
REEDSBURG      CLEAR     58  33  39 CALM      29.85F
BARABOO/DELLS  CLEAR     59  30  32 SW6       29.87S
LONE ROCK      NOT AVBL
MINERAL POINT  CLOUDY    59  37  44 S3        29.89F
MADISON        MOCLDY    59  37  44 S5        29.87S
MIDDLETON      CLEAR     61  33  35 SW6       29.88S
WATERTOWN      CLEAR     60  41  49 S7        29.88S
MONROE         PTCLDY    59  36  41 SW7       29.89S
JANESVILLE     MOCLDY    61  30  31 SW6       29.88F
$$

WIZ051-052-058>065-066-070>072-220000-
SOUTHEAST WISCONSIN

CITY           SKY/WX    TMP DP  RH WIND       PRES   REMARKS
MILWAUKEE      PTCLDY    51  45  79 E7        29.89S
WAUKESHA       CLEAR     59  34  38 SW5       29.90S
MILWAUKEE/TIMM CLEAR     63  25  23 W6        29.88F
RACINE         CLEAR     51  46  83 S7        29.91S
KENOSHA        PTCLDY    61  38  42 W5        29.89S
FOND DU LAC    CLEAR     57  40  52 S7        29.87S
SHEBOYGAN      CLEAR     54  44  69 SE7       29.87F
WEST BEND      CLEAR     61  30  31 SW3       29.88S
JUNEAU         CLEAR     58  42  54 S7        29.89S
$$

LSZ147-162-220000-
LAKE SUPERIOR

STATION/POSITION TIME  TEMP    WIND        PRES    WAVE
                       AIR SEA DIR/SP/G            HT/PER
                 (UTC) (F)     (DEG/KT/KT) (MB)    (FT/S)
DEVILS ISLAND    2200   41      90/  8/  8 1006.4F
PORT WING        2230   36     330/  1/  4 1006.4R
SAXON HARBOR     2240   55     160/  4/  9 1005.8F
$$

LMZ867-665-643>646-220000-
LAKE MICHIGAN

STATION/POSITION TIME  TEMP    WIND        PRES    WAVE
                       AIR SEA DIR/SP/G            HT/PER
                 (UTC) (F)     (DEG/KT/KT) (MB)    (FT/S)
CHAMBERS ISLAND  2240   51     190/  8/ 13 1009.8S
NORTHPORT PIER   2240   55      CALM  /  7 1009.8F
SISTER BAY       2205   59     200/ 10/ 11   N/A
ALGOMA LAKESHORE 2155          210/  7/  8   N/A
KEWAUNEE LAKESHO 2230   41     180/ 12/ 13 1010.7F
SHEBOYGAN LAKESH 2200   46     170/ 14/ 15 1011.9F
PORT WASHINGTON  2230   49     190/  3/  4 1013.2S
MILWAUKEE LAKESH 2230   43      60/  1/  1   N/A
KENOSHA   LAKESH 2200   42     150/  8/  9 1012.2
$$

TC  - TEMPERATURE IN CELSIUS
VSB - VISIBILITY IN STATUTE MILES
WCI - WIND CHILL INDEX
HX  - HEAT INDEX




USA.gov is the U.S. government's official web portal to all federal, state and local government web resources and services.